Location: Castle
(40.7167°S, 175.9500°E)
Time: 02:33:15
(UTC+00:00)

Cosmos 921 Rocket - Pass Details

Date: 04 August 2024
Orbit: 567 x 625 km, 75.8° (Epoch: 07 September)

Event Time Altitude Azimuth Distance (km) Brightness Sun altitude
Exits shadow 17:54:56 10° 203° (SSW) 2,020 5.4 -16.1°
Reaches altitude 10° 17:55:01 10° 203° (SSW) 1,984 5.3 -16.0°
Maximum altitude 17:59:23 63° 283° (WNW) 675 3.0 -15.2°
Drops below altitude 10° 18:03:37 10° 4° (N) 1,918 5.8 -14.4°
Sets 18:05:49 0° 7° (N) 2,800 6.7 -14.0°
